Weather in Takasaki

Japan     36°19′28″N   139°00′25″E
temp.,
°C
wind,
m/s
gust,
m/s
humid.,
%
clouds,
%
prec.,
mm/h
press.,
hPa
HPBL,
m
17 may, mon
mon1700:00+16wnw1294100 0.0 100980
03:00+16ssw0092100 0.0 100617
06:00+17wnw1289100 0.0 100467
09:00+22ene1171100 0.0 1004267
12:00+27e3353100 0.1 1001530
15:00+24ene2367100 0.1 1001159
18:00+23nw1174100 0.1 100230
21:00+21nw2384100 0.3 1004157
18 may, tue
tue1800:00+20nw1286100 0.2 100587
03:00+19nw1186100 0.2 100635
06:00+19nnw137988 0.1 1009229
09:00+21ene1167100 0.1 1010550
12:00+20ese3481100 0.1 1010495
15:00+18e2493100 0.9 1011479
18:00+17e2495100 0.8 1013363
21:00+16e2396100 1.9 1014267
19 may, wed
wed1900:00+16e1395100 0.2 1013238
03:00+15e1195100 0.4 1013189
06:00+15ne1196100 0.2 1013141
09:00+16n1191100 0.6 1013322
12:00+17wsw1188100 0.1 1012285
15:00+21e1173100 0.4 1011527
18:00+17e1197100 3.4 1013106
21:00+16wnw1396100 6.1 1014176
20 may, thu
thu2000:00+15w2393100 0.1 101571
03:00+15wnw2491100 0.1 101591
06:00+15w128688 0.0 1018117
09:00+20ene1153100 0.0 1018545
12:00+25e2241100 0.0 10171316
15:00+25ese4451100 0.0 10161484
18:00+22e2368100 0.0 1017528
21:00+19ene2376100 0.0 1018407
21 may, fri
fri2100:00+18e2481100 0.1 1016539
03:00+17e2496100 1.0 1014305
06:00+17e2598100 2.6 1013463
09:00+17e1396100 3.5 1012299
12:00+17wnw1194100 0.2 1010288
15:00+18nne2290100 0.2 1008388
18:00+18nne0090100 0.0 1007111
21:00+17wnw1194100 0.0 100715